Overview Statistics Trail Chart Weather Telemetry Raw packets
 

This is the latest recevied weather packets stored in our database for station/object AI5BL. If no packets are shown the sender has not sent any weather packets the latest 10 day(s).

<< 97 98 99 100 101 102 103 >>
Time Temp. Humidity Pressure Rain* Wind** Luminosity Snow
1787920946 22.78° C 99% 1019.4 hPa 0 mm - 50 W/m² -
1787920641 22.22° C 99% 1019.3 hPa 0 mm - 46 W/m² -
1787920334 22.22° C 99% 1019.5 hPa 0 mm - 45 W/m² -
1787920032 22.22° C 99% 1019.3 hPa 0 mm - 40 W/m² -
1787919727 22.22° C 99% 1019.3 hPa 0 mm - 36 W/m² -
1787919426 21.67° C 99% 1019.2 hPa 0 mm - 29 W/m² -
1787919122 21.67° C 99% 1019.2 hPa 0 mm - 22 W/m² -
1787918822 21.67° C 99% 1019.4 hPa 0 mm - 20 W/m² -
1787918517 21.67° C 99% 1019.2 hPa 0 mm - 16 W/m² -
1787918215 21.67° C 99% 1019 hPa 0 mm - 14 W/m² -
1787917915 21.67° C 99% 1019 hPa 0 mm - 12 W/m² -
1787917611 21.67° C 99% 1018.9 hPa 0 mm - 9 W/m² -
1787917307 21.67° C 99% 1019 hPa 0 mm - 6 W/m² -
1787917006 21.67° C 99% 1018.9 hPa 0 mm - 3 W/m² -
1787916701 22.22° C 99% 1018.7 hPa 0 mm - 2 W/m² -
1787916396 22.22° C 99% 1018.5 hPa 0 mm - 1 W/m² -
1787916091 22.22° C 99% 1018.6 hPa 0 mm - 0 W/m² -
1787915786 22.22° C 99% 1018.6 hPa 0 mm - 0 W/m² -
1787915481 21.67° C 99% 1018.6 hPa 0 mm - 0 W/m² -
1787915181 21.67° C 99% 1018.4 hPa 0 mm - 0 W/m² -
1787914875 21.67° C 99% 1018.4 hPa 0 mm - 0 W/m² -
1787914574 21.67° C 99% 1018.6 hPa 0 mm - 0 W/m² -
1787914270 21.67° C 99% 1018.3 hPa 0 mm - 0 W/m² -
1787913969 22.22° C 99% 1018.1 hPa 0 mm - 0 W/m² -
1787913669 22.22° C 99% 1018.1 hPa 0 mm - 0 W/m² -

* Rain latest hour (hover to see other rain measurements)
** Current wind speed in m/s (hover to see current wind gust speed)